User: anonymous   Login
Location: Ashtead
(51.3000°N, 0.3000°W)
Time: 15:52:51
(UTC+00:00)
Language:

H-2A R/B - Orbit

View from above orbital plane
View from above orbital plane
View from above satellite
View from above satellite

Ground track
Ground track

The orbit data is extracted from the following two-line orbital elements,

1 27601U 02056E   24061.95690896  .00000351  00000-0  14017-3 0  9999
2 27601  98.2205  44.4135 0070913 200.3804 219.0563 14.32670564108410
Epoch (UTC): 01 March 2024 22:57:56
Eccentricity: 0.0070913
inclination: 98.2205°
perigee height: 732 km
apogee height: 833 km
right ascension of ascending node: 44.4135°
argument of perigee: 200.3804°
revolutions per day: 14.32670564
mean anomaly at epoch: 219.0563°
orbit number at epoch: 10841

The dashed part of the orbit path shows where the satellite is in the earth's shadow,  

DLR